Voltar ao catálogo

STARLINK-34920

AtivoComunicaçõesSSO
NORAD 65447·PAYLOAD·🇺🇸 United States

Lançado Sep 3, 2025 de Vandenberg Space Force Base

Loading…

Próximas Passagens (próximas 24 horas)

TLE

AtualizadoSource: CelesTrak SupGP

Época: Sep 14, 2026, 13:59 UTC

1 65447C 25194P   26257.58312500 -.00141840  00000+0 -43987-2 0  2572
2 65447  97.2844 107.3054 0001985  90.1904 158.7595 15.33540981    18

Acompanhe STARLINK-34920 em tempo real com AllMySat

Download on the App Store